EW6448 Weather Reports


time (UTC)temp
C
wind
direction
speed
KPH
gust
KPH
rain 1hr
cm
rain 24hr
cm
rain mn
cm
humidity
%
barometer
mb
20260508194528 20 279 0.0 0.0 0.00 0.03 0.03 38 1014.9
20260508193048 20 289 0.0 0.0 0.00 0.03 0.03 40 1015.2
20260508191523 19 289 0.0 0.0 0.00 0.03 0.03 42 1015.3
20260508190026 18 282 0.0 0.0 0.00 0.03 0.03 40 1015.6
20260508184510 18 281 0.0 4.8 0.00 0.03 0.03 43 1016.0
20260508183006 18 284 0.0 0.0 0.00 0.03 0.03 40 1016.1
20260508181501 18 277 0.0 1.6 0.00 0.03 0.03 44 1016.3
20260508174615 17 230 0.0 6.4 0.00 0.03 0.03 46 1016.7
20260508173059 17 284 0.0 0.0 0.00 0.03 0.03 45 1017.1
20260508171607 17 284 0.0 0.0 0.00 0.03 0.03 45 1017.3
20260508170041 17 284 0.0 1.6 0.00 0.03 0.03 50 1017.6
20260508164538 16 283 0.0 3.2 0.00 0.05 0.03 51 1018.0
20260508163034 16 277 0.0 0.0 0.00 0.05 0.03 49 1018.2
20260508161538 16 282 0.0 4.8 0.00 0.05 0.03 50 1018.5
20260508160030 15 261 0.0 0.0 0.00 0.05 0.03 52 1018.8
20260508154518 15 261 0.0 0.0 0.00 0.05 0.03 57 1019.0
20260508153014 14 262 0.0 0.0 0.00 0.05 0.03 61 1019.1
20260508151519 13 292 0.0 0.0 0.00 0.05 0.03 63 1019.3
20260508150009 13 292 0.0 0.0 0.00 0.05 0.03 58 1019.5
20260508144601 12 292 0.0 4.8 0.00 0.05 0.03 40 1019.5
20260508143059 12 293 0.0 1.6 0.00 0.05 0.03 19 1019.6
20260508141552 11 293 0.0 0.0 0.00 0.05 0.03 1 1019.6
20260508140048 10 293 0.0 0.0 0.00 0.05 0.03 1 1019.8
20260508134542 8 293 0.0 0.0 0.00 0.08 0.03 1 1019.9
20260508133058 8 293 0.0 0.0 0.00 0.08 0.03 1 1020.0
20260508131536 8 293 0.0 0.0 0.00 0.08 0.03 1 1019.9
20260508130029 7 293 0.0 0.0 0.00 0.08 0.03 1 1019.7
20260508124531 7 293 0.0 0.0 0.00 0.08 0.03 1 1019.8
20260508123020 7 293 0.0 0.0 0.00 0.08 0.03 1 1019.5
20260508121514 7 293 0.0 0.0 0.00 0.08 0.03 1 1019.5
20260508120011 7 293 0.0 0.0 0.00 0.08 0.03 1 1019.3
20260508114505 7 293 0.0 0.0 0.00 0.10 0.03 1 1019.1
20260508113002 7 293 0.0 0.0 0.00 0.10 0.03 1 1018.8
20260508111602 7 293 0.0 0.0 0.00 0.10 0.03 1 1018.5
20260508110059 7 293 0.0 0.0 0.00 0.10 0.03 1 1018.4
20260508104551 7 293 0.0 0.0 0.00 0.10 0.03 1 1018.2
20260508103044 7 293 0.0 0.0 0.00 0.10 0.03 1 1018.0
20260508101545 7 293 0.0 0.0 0.00 0.10 0.03 1 1017.7
20260508100035 7 293 0.0 0.0 0.00 0.10 0.03 1 1017.6
20260508094530 7 293 0.0 0.0 0.00 0.13 0.03 1 1017.5
20260508093027 7 293 0.0 0.0 0.03 0.13 0.03 1 1017.6
20260508091534 7 293 0.0 0.0 0.03 0.13 0.03 1 1017.5
20260508090018 7 293 0.0 0.0 0.03 0.13 0.03 1 1017.3
20260508084513 7 293 0.0 0.0 0.03 0.13 0.03 1 1017.1
20260508083020 8 293 0.0 0.0 0.00 0.10 0.00 1 1017.2
20260508081508 8 293 0.0 0.0 0.00 0.10 0.00 1 1017.2
20260508080100 8 293 0.0 0.0 0.00 0.10 0.00 1 1017.1
20260508074555 8 293 0.0 0.0 0.00 0.13 0.00 1 1017.1
20260508073052 8 293 0.0 0.0 0.00 0.13 0.00 1 1017.3
20260508071550 8 293 0.0 0.0 0.00 0.13 0.00 1 1017.1
20260508070042 8 292 0.0 0.0 0.00 0.13 0.00 1 1017.0
20260508064540 8 293 0.0 0.0 0.00 0.13 0.00 1 1017.3
20260508063100 8 293 0.0 0.0 0.00 0.13 0.00 1 1017.3
20260508061530 8 293 0.0 0.0 0.00 0.13 0.00 1 1017.2
20260508060028 8 293 0.0 0.0 0.00 0.13 0.00 1 1017.3
20260508054520 8 293 0.0 0.0 0.00 0.13 0.00 1 1017.3
20260508053015 8 293 0.0 0.0 0.00 0.13 0.00 1 1017.2
20260508051511 8 293 0.0 0.0 0.00 0.13 0.00 1 1017.2
20260508050007 8 293 0.0 0.0 0.00 0.13 0.00 1 1017.0
20260508044502 9 293 0.0 0.0 0.00 0.15 0.00 1 1016.8
20260508043057 9 293 0.0 0.0 0.00 0.15 0.00 1 1016.6
20260508041553 9 293 0.0 0.0 0.00 0.15 0.00 1 1016.6
20260508040048 10 293 0.0 0.0 0.00 0.15 0.00 1 1016.4
20260508034544 10 293 0.0 0.0 0.00 0.20 0.15 1 1016.2
20260508033047 10 293 0.0 0.0 0.00 0.20 0.15 1 1016.3
20260508031538 10 293 0.0 0.0 0.00 0.20 0.15 1 1016.4
20260508030031 10 293 0.0 0.0 0.00 0.20 0.15 1 1016.2
20260508024526 10 292 0.0 0.0 0.00 0.28 0.15 1 1015.8
20260508023023 10 293 0.0 0.0 0.00 0.28 0.15 1 1015.6
20260508021527 10 293 0.0 0.0 0.00 0.28 0.15 1 1015.5
20260508020012 10 293 0.0 0.0 0.00 0.28 0.15 1 1015.4
20260508014512 11 293 0.0 0.0 0.00 0.38 0.15 1 1015.0
20260508013003 11 293 0.0 0.0 0.00 0.38 0.15 1 1014.8
20260508011600 11 293 0.0 0.0 0.00 0.38 0.15 2 1014.6
20260508004550 12 293 0.0 0.0 0.00 0.41 0.15 17 1014.1
20260508003046 13 293 0.0 0.0 0.00 0.41 0.15 40 1013.8
20260508001544 14 293 0.0 0.0 0.00 0.41 0.15 48 1013.7
20260508000044 15 293 0.0 0.0 0.00 0.41 0.15 51 1013.9
20260507234533 14 293 0.0 0.0 0.00 0.41 0.15 49 1013.9
20260507233035 14 293 0.0 0.0 0.00 0.41 0.15 50 1013.8
20260507231523 15 293 0.0 0.0 0.00 0.41 0.15 50 1014.0
20260507230030 15 293 0.0 0.0 0.00 0.41 0.15 54 1013.9
20260507224514 15 293 0.0 0.0 0.00 0.41 0.15 51 1013.9
20260507223010 15 293 0.0 0.0 0.00 0.41 0.15 50 1013.9
20260507221506 15 293 0.0 0.0 0.00 0.41 0.15 50 1013.7
20260507220001 15 293 0.0 0.0 0.00 0.41 0.15 56 1013.6
20260507214600 15 293 0.0 0.0 0.00 0.41 0.15 53 1013.5
20260507213121 14 293 0.0 0.0 0.00 0.41 0.15 35 1013.4
20260507211549 13 293 0.0 0.0 0.00 0.41 0.15 27 1013.5
20260507210048 13 293 0.0 0.0 0.00 0.41 0.15 16 1013.2
20260507204542 12 293 0.0 0.0 0.00 0.41 0.15 13 1013.2
20260507203038 12 293 0.0 0.0 0.00 0.41 0.15 27 1013.4
20260507201530 12 293 0.0 0.0 0.00 0.41 0.15 30 1013.5
20260507200047 12 293 0.0 0.0 0.00 0.41 0.15 18 1013.4